Regional Weather Roundup
Issued by NWS

Home | Current Version | Previous Version | Graphics & Text | Print | Product List | Glossary On
Versions: 1 2 3 4 5 6 7 8 9 10 11 12 13 14 15 16 17 18 19 20 21 22 23 24 25 26 27 28 29 30 31 32 33 34 35 36 37 38 39 40 41 42 43 44 45 46 47 48 49 50
000
ASUS43 KDMX 020007
RWRIA

WEATHER ROUNDUP FOR IOWA
NATIONAL WEATHER SERVICE DES MOINES IA
700 PM CDT WED JUL 01 2015

NOTE: "FAIR" INDICATES FEW OR NO CLOUDS BELOW 12,000 FEET WITH NO
SIGNIFICANT WEATHER AND/OR OBSTRUCTIONS TO VISIBILITY.

* - THESE STATIONS ARE NOT NWS STATIONS...THUS NOT UNDER NWS
QUALITY CONTROL.  THEY ALSO DO NOT REPORT WEATHER SUCH
AS PRECIPITATION OR FOG.

IAZ001>003-012>014-020>022-031>034-043>046-020100-
   NORTHWEST IOWA

CITY           SKY/WX    TMP DP  RH WIND       PRES   REMARKS
CARROLL *      PTSUNNY   73  64  73 E10       29.92S
CHEROKEE *     CLOUDY    71  60  70 E8        29.95R
DENISON *      PTSUNNY   72  66  83 E7G13     29.91R
LE MARS *      CLOUDY    73  64  73 E7G13     29.94S
ORANGE CITY *  PTSUNNY   70  61  73 E7        29.95R
SHELDON *      CLOUDY    72  55  56 E10       29.95S
SIOUX CITY     PTSUNNY   75  65  70 E12       29.90F
6HR MIN TEMP:  75; 6HR MAX TEMP:  77;

SPENCER        SUNNY     72  51  47 E10       29.97R
6HR MIN TEMP:  66; 6HR MAX TEMP:  75; 6HR PCP: TRACE;

STORM LAKE *   MOSUNNY   70  57  64 E12       29.96R
$$

IAZ055>058-069>071-079>083-090>094-020100-
   SOUTHWEST IOWA

CITY           SKY/WX    TMP DP  RH WIND       PRES   REMARKS
ATLANTIC *     PTSUNNY   75  68  78 NE9G17    29.89S
AUDUBON *      MOSUNNY   72  66  83 E12       29.93S
CLARINDA *     PTSUNNY   81  70  69 E10       29.87S HX  84
COUNCIL BLFS * MOSUNNY   77  70  78 E13G20    29.88R
CRESTON *      PTSUNNY   73  68  83 E15       29.90S
HARLAN  *      PTSUNNY   73  73 100 E13       29.93S
LAMONI         PTSUNNY   77  69  76 NE9       29.88S
6HR MIN TEMP:  74; 6HR MAX TEMP:  81;

RED OAK *      MOSUNNY   79  70  73 E12       29.86S HX  81
SHENANDOAH *   CLOUDY    81  72  74 E13G20    29.85S HX  84
$$

IAZ047>049-059>061-072>074-084-020100-
   CENTRAL IOWA

CITY           SKY/WX    TMP DP  RH WIND       PRES   REMARKS
AMES           PTSUNNY   70  58  65 E12       29.94R
6HR MIN TEMP:  70; 6HR MAX TEMP:  76;

ANKENY *       PTSUNNY   72  61  68 E8        29.92S
CHARITON *     MOSUNNY   72  66  83 E9        29.91S
DES MOINES     CLOUDY    73  60  63 E12       29.91S
6HR MIN TEMP:  73; 6HR MAX TEMP:  76;

GRINNELL*      CLOUDY    68  56  64 NE9       29.94S
KNOXVILLE *    PTSUNNY   72  63  73 E10       29.90S
MARSHALLTOWN   CLOUDY    67  58  72 NE12      29.94S
6HR MIN TEMP:  67; 6HR MAX TEMP:  74;

PELLA *        CLOUDY    71  64  77 NE5       29.93R
PERRY *        CLOUDY    72  59  64 E10       29.92S
$$

IAZ004>006-015-016-023>025-035-036-020100-
   NORTH CENTRAL IOWA

CITY           SKY/WX    TMP DP  RH WIND       PRES   REMARKS
ALGONA *       PTSUNNY   68  55  64 NE13      29.98R
CLARION *      CLOUDY    66  54  63 E14       29.97R
ESTHERVILLE    MOSUNNY   66  56  70 E10       29.98S
6HR MIN TEMP:  65; 6HR MAX TEMP:  71;

FORT DODGE *   CLOUDY    68  54  60 E10       29.96S
MASON CITY     MOSUNNY   65  54  67 E9        30.00S
6HR MIN TEMP:  64; 6HR MAX TEMP:  66; 6HR PCP: TRACE;

FOREST CITY *  SUNNY     64  54  68 NE6       29.99S
IOWA FALLS *   CLOUDY    66  50  55 E9        29.97S
$$

IAZ007>011-017>019-026>030-037>042-050>054-066-020100-
   NORTHEAST IOWA

CITY           SKY/WX    TMP DP  RH WIND       PRES   REMARKS
CEDAR RAPIDS   CLOUDY    67  58  72 NE12      29.94R
6HR MIN TEMP:  67; 6HR MAX TEMP:  73;

CHARLES CITY * PTSUNNY   63  55  77 NE8       29.99S
CLINTON *      CLOUDY    66  57  72 NE7       29.97S
DECORAH *        N/A    N/A N/A N/A MISG        N/A
DUBUQUE        CLOUDY    64  54  69 NE7       29.97S
6HR MIN TEMP:  64; 6HR MAX TEMP:  70;

MONTICELLO *   CLOUDY    64 N/A N/A CALM      29.96R
OELWEIN *        N/A     63  54  72 NE7       29.99R
WATERLOO       CLOUDY    63  56  78 NE9       29.96S
6HR MIN TEMP:  63; 6HR MAX TEMP:  69; 6HR PCP: TRACE;

$$

IAZ064-065-067-068-078-020100-
   EAST CENTRAL IOWA

CITY           SKY/WX    TMP DP  RH WIND       PRES   REMARKS
DAVENPORT      PTSUNNY   68  57  68 NE12      29.93F
6HR MIN TEMP:  68; 6HR MAX TEMP:  74;

IOWA CITY      PTSUNNY   71  57  61 E10       29.94S
6HR MIN TEMP:  70; 6HR MAX TEMP:  74;

MT. PLEASANT * CLOUDY    73  61  66 NE6       29.92R
MUSCATINE *    SUNNY     73  59  60 NE10      29.93R
QUAD CITIES    MOSUNNY   72  57  59 NE9       29.92S
6HR MIN TEMP:  69; 6HR MAX TEMP:  74;

$$

IAZ062-063-075>077-085>089-095>099-020100-
   SOUTHEAST IOWA

CITY           SKY/WX    TMP DP  RH WIND       PRES   REMARKS
BURLINGTON     CLOUDY    72  65  78 NE8       29.91R
6HR MIN TEMP:  72; 6HR MAX TEMP:  79;

FAIRFIELD *    DRIZZLE   70  61  73 NE10      29.92R
FORT MADISON * CLOUDY    72  66  83 NE7       29.92R
KEOKUK *       MOSUNNY   75  68  78 NE7       29.90R
OSKALOOSA *    CLOUDY    69  63  79 NE6       29.92R
CENTERVILLE *  PTSUNNY   72  66  83 NE10      29.92R
OTTUMWA        CLOUDY    71  65  81 E8        29.90S
6HR MIN TEMP:  71; 6HR MAX TEMP:  77; 6HR PCP: TRACE;

WASHINGTON *   CLOUDY    72  61  68 E7G13     29.94S
$$

ABBREVIATIONS USED IN REMARKS
   TC - TEMPERATURES IN CELSIUS
  WCI - WIND CHILL INDEX
   HX - HEAT INDEX
  VSB - VISIBILITY
$$




USA.gov is the U.S. government's official web portal to all federal, state and local government web resources and services.